HIMAWARI 3 (GMS 3)

导读 | 星芒AI

HIMAWARI 3(又称 GMS 3)是日本气象厅(JMA)运营的地球静止气象卫星,于1995年发射。它位于东经140度的轨道位置,为日本及周边地区提供连续的气象观测数据。该卫星搭载了先进的可见光和红外线传感器,用于监测天气变化、台风路径和云层发展。HIMAWARI 3 在气象预报、灾害预警和气候研究中发挥了重要作用,直至被更先进的 HIMAWARI 8 取代。

基本信息
目录编号:
15152
目录名称:
HIMAWARI 3 (GMS 3)
国际标识:
1984-080A
轨道中心:
EARTH
卫星名称:
HIMAWARI 3 (GMS 3)
卫星全名:
--
卫星状态:
在轨 (已飞行15110 天)
发射日期:
1984-08-02 UTC
国别 :
日本 (JP)
星等 :
--
轨道信息
数据来源 国际轨道数据
星历时间: 2025-12-14T15:15:18+0800
1天前
查看轨道信息
半长轴: 42286.072km
偏心率: 0.0003753
轨道倾角: 10.907°
近地点辐角 157.132°
升交点赤经 324.847°
平近点角 214.406°
近地点: 35892.067km
远地点: 35923.807km
周期: 1442.300分钟
每日圈数: 0.998405
详细信息
使用方式:
暂无
2D轨道图
3D轨道图
轨道高度分析图
轨道倾角分析图
轨道综合分析图
查看轨道综合分析图